Location: Long Barn
(38.0930°N, 120.1344°W)
Time: 18:33:15
(UTC+00:00)

Hubble Space Telescope - Pass Details

Date: 26 January 2026
Orbit: 478 x 480 km, 28.5° (Epoch: 5 February)

Event Time Altitude Azimuth Distance (km) Brightness Sun altitude
Rises 01:44:26 0° 223° (SW) 2,508 5.4 -6.1°
Reaches altitude 10° 01:47:37 10° 194° (SSW) 1,633 3.7 -6.7°
Maximum altitude 01:49:22 13° 166° (SSE) 1,464 3.1 -7.0°
Drops below altitude 10° 01:51:08 10° 138° (SE) 1,636 3.0 -7.3°
Enters shadow 01:53:28 - 115° (ESE) 2,239 3.5 -7.7°
